Date String (YYYY-MM-DD hh:mm:ss) UTC,Instrument flags,Ambient pressure (hPa),Sample flow (lpm),Bypass flow (lpm),Sample temperature (°C),Ambient temperature (°C),ASC tube jacket temperature (°C),LED temperature (°C),Box temperature (°C),Sample RH (%),Span deviation,Mass concentration (μg/m³),Mass concentration (μg/m³),Mass concentration (μg/m³)
DateTimeUTC,F1_M11,P_M11,Q1_M11,Q2_M11,T1_M11,T2_M11,T3_M11,T4_M11,T5_M11,U1_M11,ZSPAN_M11,X0_M11,X2_M11,X1_M11
2022-08-27 03:00:00,,0827.6,4.99,0.00,29.8,28.6,00.0,38.6,31.6,26.8,0000.0,0007.36,0003.92,0003.47
2022-08-27 03:01:00,,0827.2,5.00,0.00,29.8,28.6,00.0,38.6,31.7,26.8,0000.0,0007.41,0003.94,0003.48
2022-08-27 03:02:00,,0827.1,5.00,0.00,29.8,28.7,00.0,38.6,31.7,26.8,0000.0,0007.49,0003.96,0003.48
2022-08-27 03:03:00,,0827.2,5.01,0.00,29.9,28.8,00.0,38.6,31.7,26.8,0000.0,0007.57,0003.97,0003.47
2022-08-27 03:04:00,,0827.1,5.00,0.00,29.9,28.8,00.0,38.7,31.7,26.8,0000.0,0007.53,0003.95,0003.47
2022-08-27 03:05:00,,0827.2,5.00,0.00,29.9,28.9,00.0,38.7,31.7,26.9,0000.0,0007.39,0003.97,0003.47
2022-08-27 03:06:00,,0827.2,5.00,0.00,29.9,28.9,00.0,38.7,31.8,26.9,0000.0,0007.36,0004.01,0003.48
2022-08-27 03:07:00,,0827.2,5.00,0.00,30.0,29.0,00.0,38.7,31.8,26.8,0000.0,0007.46,0004.03,0003.48
2022-08-27 03:08:00,,0827.2,5.00,0.00,30.0,29.0,00.0,38.7,31.9,26.8,0000.0,0007.56,0004.05,0003.47
2022-08-27 03:09:00,,0827.2,5.00,0.00,30.0,29.0,00.0,38.7,31.9,26.8,0000.0,0007.78,0004.08,0003.47
2022-08-27 03:10:00,,0827.2,5.00,0.00,30.0,29.1,00.0,38.8,31.9,26.7,0000.0,0007.63,0004.04,0003.48
2022-08-27 03:11:00,,0827.2,5.00,0.00,30.1,29.1,00.0,38.8,32.0,26.6,0000.0,0007.59,0004.04,0003.48
2022-08-27 03:12:00,,0827.2,5.00,0.00,30.1,29.1,00.0,38.8,32.0,26.5,0000.0,0007.94,0004.07,0003.48
2022-08-27 03:13:00,,0827.2,4.99,0.00,30.1,28.6,00.0,38.8,32.0,26.4,0000.0,0008.17,0004.06,0003.49
2022-08-27 03:14:00,,0827.2,4.99,0.00,30.1,27.3,00.0,38.8,31.9,26.4,0000.0,0008.16,0004.08,0003.50
2022-08-27 03:15:00,,0827.1,5.00,0.00,30.0,26.9,00.0,38.7,31.8,26.5,0000.0,0008.40,0004.14,0003.51
2022-08-27 03:16:00,,0827.2,5.00,0.00,30.0,27.1,00.0,38.7,31.7,26.7,0000.0,0008.40,0004.13,0003.52
2022-08-27 03:17:00,,0827.1,5.00,0.00,29.9,27.4,00.0,38.7,31.6,26.7,0000.0,0008.30,0004.09,0003.52
2022-08-27 03:18:00,,0827.1,4.99,0.00,29.9,27.7,00.0,38.7,31.6,26.5,0000.0,0008.67,0004.13,0003.52
2022-08-27 03:19:00,,0827.1,5.00,0.00,29.9,28.0,00.0,38.7,31.7,26.5,0000.0,0008.97,0004.12,0003.53
2022-08-27 03:20:00,,0827.1,5.00,0.00,29.9,28.2,00.0,38.7,31.7,26.5,0000.0,0009.21,0004.08,0003.53
2022-08-27 03:21:00,,0827.2,5.01,0.00,29.9,28.3,00.0,38.7,31.7,26.4,0000.0,0009.20,0004.09,0003.54
2022-08-27 03:22:00,,0827.4,4.99,0.00,29.9,28.5,00.0,38.7,31.7,26.6,0000.0,0008.99,0004.06,0003.54
2022-08-27 03:23:00,,0827.4,5.00,0.00,29.9,28.6,00.0,38.7,31.8,27.1,0000.0,0008.67,0004.04,0003.53
2022-08-27 03:24:00,,0827.2,5.01,0.00,29.9,28.7,00.0,38.7,31.7,27.2,0000.0,0008.74,0004.09,0003.53
2022-08-27 03:25:00,,0827.0,5.00,0.00,29.9,28.8,00.0,38.7,31.8,27.4,0000.0,0010.53,0004.12,0003.53
2022-08-27 03:26:00,,0827.0,5.00,0.00,29.9,28.8,00.0,38.7,31.8,27.0,0000.0,0010.74,0004.09,0003.53
2022-08-27 03:27:00,,0827.0,5.00,0.00,30.0,28.9,00.0,38.7,31.9,26.9,0000.0,0011.17,0004.10,0003.53
2022-08-27 03:28:00,,0826.9,5.00,0.00,30.0,28.9,00.0,38.7,31.9,26.8,0000.0,0011.32,0004.12,0003.53
2022-08-27 03:29:00,,0827.0,5.00,0.00,30.0,29.0,00.0,38.8,31.9,26.4,0000.0,0010.98,0004.11,0003.54
2022-08-27 03:30:00,,0827.0,5.00,0.00,30.0,29.0,00.0,38.8,31.9,26.0,0000.0,0010.63,0004.11,0003.53
2022-08-27 03:31:00,,0826.9,5.00,0.00,30.1,29.1,00.0,38.8,32.0,26.1,0000.0,0010.20,0004.14,0003.54
2022-08-27 03:32:00,,0826.9,5.00,0.00,30.1,29.1,00.0,38.8,32.0,26.0,0000.0,0010.30,0004.18,0003.55
2022-08-27 03:33:00,,0827.1,5.00,0.00,30.1,29.1,00.0,38.8,32.0,26.0,0000.0,0010.62,0004.21,0003.56
2022-08-27 03:34:00,,0826.9,4.99,0.00,30.1,29.0,00.0,38.8,32.0,25.8,0000.0,0010.54,0004.19,0003.56
2022-08-27 03:35:00,,0827.0,4.99,0.00,30.1,27.7,00.0,38.8,32.0,25.9,0000.0,0010.24,0004.14,0003.56
2022-08-27 03:36:00,,0827.6,5.00,0.00,30.1,27.0,00.0,38.8,31.9,26.1,0000.0,0008.50,0004.14,0003.56
2022-08-27 03:37:00,,0827.3,5.00,0.00,30.0,27.1,00.0,38.7,31.8,26.2,0000.0,0008.11,0004.12,0003.56
2022-08-27 03:38:00,,0827.1,4.99,0.00,29.9,27.3,00.0,38.7,31.6,26.1,0000.0,0007.76,0004.14,0003.56
2022-08-27 03:39:00,,0827.2,5.00,0.00,29.9,27.6,00.0,38.7,31.6,25.9,0000.0,0007.72,0004.10,0003.54
2022-08-27 03:40:00,,0827.2,5.00,0.00,29.9,27.9,00.0,38.7,31.7,25.8,0000.0,0007.56,0004.06,0003.53
2022-08-27 03:41:00,,0827.2,5.01,0.00,29.9,28.1,00.0,38.7,31.7,25.9,0000.0,0007.51,0004.03,0003.51
2022-08-27 03:42:00,,0827.2,4.99,0.00,29.9,28.3,00.0,38.7,31.7,26.0,0000.0,0007.44,0003.99,0003.49
2022-08-27 03:43:00,,0827.2,5.00,0.00,29.9,28.5,00.0,38.7,31.7,26.1,0000.0,0007.52,0004.00,0003.49
2022-08-27 03:44:00,,0827.2,5.01,0.00,29.9,28.6,00.0,38.7,31.7,26.2,0000.0,0007.22,0003.96,0003.47
2022-08-27 03:45:00,,0827.3,5.00,0.00,29.9,28.7,00.0,38.7,31.8,26.2,0000.0,0007.05,0003.95,0003.46
2022-08-27 03:46:00,,0827.3,5.00,0.00,29.9,28.8,00.0,38.7,31.8,26.2,0000.0,0007.04,0003.95,0003.45
2022-08-27 03:47:00,,0827.3,5.00,0.00,30.0,28.8,00.0,38.7,31.8,26.2,0000.0,0006.88,0003.93,0003.43
2022-08-27 03:48:00,,0827.4,5.00,0.00,30.0,28.9,00.0,38.7,31.9,26.3,0000.0,0006.83,0003.91,0003.42
2022-08-27 03:49:00,,0827.3,5.00,0.00,30.0,28.9,00.0,38.7,31.9,26.4,0000.0,0006.74,0003.89,0003.40
2022-08-27 03:50:00,,0827.4,5.00,0.00,30.0,29.0,00.0,38.8,31.9,26.3,0000.0,0006.75,0003.87,0003.40
2022-08-27 03:51:00,,0827.4,5.00,0.00,30.1,29.0,00.0,38.8,32.0,26.3,0000.0,0006.86,0003.88,0003.39
2022-08-27 03:52:00,,0827.4,5.00,0.00,30.1,29.1,00.0,38.8,32.0,26.4,0000.0,0007.05,0003.88,0003.39
2022-08-27 03:53:00,,0827.4,5.00,0.00,30.1,29.1,00.0,38.8,32.0,26.5,0000.0,0007.07,0003.86,0003.40
2022-08-27 03:54:00,,0827.4,4.99,0.00,30.1,29.2,00.0,38.8,32.0,26.6,0000.0,0007.00,0003.81,0003.39
2022-08-27 03:55:00,,0827.4,4.99,0.00,30.2,29.2,00.0,38.9,32.0,26.7,0000.0,0006.91,0003.80,0003.40
2022-08-27 03:56:00,,0827.4,4.99,0.00,30.2,29.2,00.0,38.9,32.1,26.6,0000.0,0006.85,0003.79,0003.40
2022-08-27 03:57:00,,0827.4,5.01,0.00,30.2,29.3,00.0,38.9,32.1,26.5,0000.0,0006.79,0003.77,0003.41
2022-08-27 03:58:00,,0827.4,4.98,0.00,30.2,28.4,00.0,38.9,32.1,26.4,0000.0,0007.20,0003.76,0003.42
2022-08-27 03:59:00,,0827.4,5.01,0.00,30.2,27.3,00.0,38.9,32.0,26.5,0000.0,0007.57,0003.78,0003.42
